Date String (YYYY-MM-DD hh:mm:ss) UTC,Instrument flags,Ambient pressure (hPa),Sample flow (lpm),Bypass flow (lpm),Sample temperature (°C),Ambient temperature (°C),ASC tube jacket temperature (°C),LED temperature (°C),Box temperature (°C),Sample RH (%),Span deviation,Mass concentration (μg/m³),Mass concentration (μg/m³),Mass concentration (μg/m³)
DateTimeUTC,F1_M11,P_M11,Q1_M11,Q2_M11,T1_M11,T2_M11,T3_M11,T4_M11,T5_M11,U1_M11,ZSPAN_M11,X0_M11,X2_M11,X1_M11
2023-05-13 04:00:00,,0835.0,4.99,0.00,27.5,26.1,00.0,35.7,29.2,24.0,0000.0,0001.07,0000.59,0000.38
2023-05-13 04:01:00,,0835.0,5.00,0.00,27.5,26.1,00.0,35.8,29.2,23.9,0000.0,0001.99,0000.60,0000.38
2023-05-13 04:02:00,,0835.0,5.01,0.00,27.5,26.1,00.0,35.8,29.2,23.9,0000.0,0002.07,0000.64,0000.39
2023-05-13 04:03:00,,0835.0,5.01,0.00,27.5,26.1,00.0,35.8,29.2,23.9,0000.0,0002.03,0000.64,0000.40
2023-05-13 04:04:00,,0834.9,4.99,0.00,27.5,26.1,00.0,35.8,29.2,24.0,0000.0,0002.15,0000.64,0000.40
2023-05-13 04:05:00,,0834.9,4.99,0.00,27.5,26.1,00.0,35.8,29.2,24.1,0000.0,0002.09,0000.63,0000.40
2023-05-13 04:06:00,,0834.9,5.00,0.00,27.5,26.1,00.0,35.8,29.2,24.3,0000.0,0002.10,0000.65,0000.40
2023-05-13 04:07:00,,0834.9,5.01,0.00,27.5,26.0,00.0,35.8,29.2,24.3,0000.0,0002.21,0000.66,0000.40
2023-05-13 04:08:00,,0835.0,5.01,0.00,27.5,26.0,00.0,35.8,29.2,24.2,0000.0,0003.18,0000.64,0000.40
2023-05-13 04:09:00,,0835.0,5.00,0.00,27.5,26.0,00.0,35.8,29.2,24.3,0000.0,0003.54,0000.64,0000.40
2023-05-13 04:10:00,,0835.0,5.00,0.00,27.5,26.1,00.0,35.8,29.2,24.2,0000.0,0003.55,0000.64,0000.41
2023-05-13 04:11:00,,0835.0,5.00,0.00,27.5,26.1,00.0,35.9,29.2,24.1,0000.0,0003.63,0000.68,0000.41
2023-05-13 04:12:00,,0835.0,5.00,0.00,27.5,26.1,00.0,35.9,29.2,24.0,0000.0,0002.97,0000.67,0000.41
2023-05-13 04:13:00,,0834.9,5.00,0.00,27.5,26.0,00.0,35.9,29.2,24.0,0000.0,0002.65,0000.63,0000.40
2023-05-13 04:14:00,,0834.9,5.00,0.00,27.5,26.0,00.0,35.9,29.2,23.9,0000.0,0002.64,0000.63,0000.40
2023-05-13 04:15:00,,0834.9,5.00,0.00,27.5,26.0,00.0,35.9,29.2,23.9,0000.0,0002.56,0000.64,0000.40
2023-05-13 04:16:00,,0834.9,5.00,0.00,27.5,25.9,00.0,35.9,29.1,24.0,0000.0,0002.47,0000.63,0000.41
2023-05-13 04:17:00,,0835.0,4.99,0.00,27.5,25.8,00.0,35.9,29.1,24.0,0000.0,0002.53,0000.63,0000.42
2023-05-13 04:18:00,,0835.0,5.00,0.00,27.5,25.8,00.0,35.9,29.1,24.1,0000.0,0002.52,0000.65,0000.43
2023-05-13 04:19:00,,0835.0,4.99,0.00,27.5,25.8,00.0,35.9,29.1,24.1,0000.0,0001.73,0000.66,0000.45
2023-05-13 04:20:00,,0835.0,5.01,0.00,27.5,25.7,00.0,35.9,29.1,24.2,0000.0,0001.22,0000.70,0000.46
2023-05-13 04:21:00,,0835.0,5.01,0.00,27.5,25.7,00.0,35.9,29.1,24.3,0000.0,0001.27,0000.72,0000.48
2023-05-13 04:22:00,,0835.0,5.00,0.00,27.4,25.7,00.0,35.9,29.1,24.3,0000.0,0001.21,0000.71,0000.49
2023-05-13 04:23:00,,0835.0,5.00,0.00,27.5,25.8,00.0,35.9,29.1,24.2,0000.0,0001.19,0000.72,0000.52
2023-05-13 04:24:00,,0834.9,5.00,0.00,27.4,25.8,00.0,35.9,29.1,24.2,0000.0,0001.35,0000.78,0000.55
2023-05-13 04:25:00,,0834.9,5.00,0.00,27.5,25.8,00.0,35.9,29.1,24.2,0000.0,0001.44,0000.83,0000.58
2023-05-13 04:26:00,,0835.0,5.00,0.00,27.5,25.8,00.0,35.9,29.1,24.1,0000.0,0001.52,0000.85,0000.61
2023-05-13 04:27:00,,0835.3,5.00,0.00,27.5,25.8,00.0,35.9,29.1,24.2,0000.0,0001.55,0000.89,0000.64
2023-05-13 04:28:00,,0835.4,4.99,0.00,27.4,25.8,00.0,35.9,29.1,24.2,0000.0,0001.81,0000.91,0000.67
2023-05-13 04:29:00,,0835.3,4.99,0.00,27.4,25.8,00.0,35.8,29.1,24.2,0000.0,0001.78,0000.92,0000.69
2023-05-13 04:30:00,,0835.3,5.00,0.00,27.5,25.8,00.0,35.8,29.1,24.2,0000.0,0001.90,0000.97,0000.72
2023-05-13 04:31:00,,0835.3,5.01,0.00,27.5,25.8,00.0,35.8,29.1,24.3,0000.0,0001.87,0000.98,0000.74
2023-05-13 04:32:00,,0834.8,5.01,0.00,27.5,25.8,00.0,35.8,29.1,24.3,0000.0,0001.92,0001.01,0000.76
2023-05-13 04:33:00,,0834.8,5.01,0.00,27.5,25.8,00.0,35.8,29.1,24.3,0000.0,0001.93,0001.03,0000.78
2023-05-13 04:34:00,,0834.7,5.00,0.00,27.4,25.8,00.0,35.8,29.1,24.4,0000.0,0002.20,0001.06,0000.79
2023-05-13 04:35:00,,0834.9,4.99,0.00,27.4,25.8,00.0,35.8,29.1,24.4,0000.0,0002.55,0001.08,0000.81
2023-05-13 04:36:00,,0835.2,4.99,0.00,27.4,25.8,00.0,35.8,29.1,24.4,0000.0,0002.56,0001.08,0000.81
2023-05-13 04:37:00,,0834.7,5.00,0.00,27.4,25.7,00.0,35.8,29.1,24.4,0000.0,0002.49,0001.07,0000.81
2023-05-13 04:38:00,,0834.6,5.01,0.00,27.4,25.8,00.0,35.8,29.1,24.4,0000.0,0002.56,0001.09,0000.82
2023-05-13 04:39:00,,0834.7,5.01,0.00,27.4,25.8,00.0,35.8,29.1,24.3,0000.0,0002.36,0001.08,0000.84
2023-05-13 04:40:00,,0835.0,5.01,0.00,27.4,25.8,00.0,35.8,29.1,24.2,0000.0,0002.25,0001.10,0000.86
2023-05-13 04:41:00,,0835.1,5.00,0.00,27.4,25.8,00.0,35.8,29.1,24.2,0000.0,0002.25,0001.10,0000.87
2023-05-13 04:42:00,,0835.1,5.00,0.00,27.4,25.8,00.0,35.8,29.1,24.3,0000.0,0002.39,0001.14,0000.90
2023-05-13 04:43:00,,0835.1,4.99,0.00,27.4,25.8,00.0,35.8,29.1,24.3,0000.0,0002.56,0001.16,0000.92
2023-05-13 04:44:00,,0834.6,4.99,0.00,27.4,25.8,00.0,35.8,29.1,24.3,0000.0,0002.67,0001.21,0000.93
2023-05-13 04:45:00,,0834.5,5.00,0.00,27.4,25.8,00.0,35.8,29.1,24.3,0000.0,0002.46,0001.21,0000.95
2023-05-13 04:46:00,,0834.5,4.99,0.00,27.4,25.8,00.0,35.8,29.1,24.2,0000.0,0002.14,0001.20,0000.96
2023-05-13 04:47:00,,0834.5,5.01,0.00,27.4,25.8,00.0,35.8,29.1,24.2,0000.0,0002.24,0001.22,0000.99
2023-05-13 04:48:00,,0834.5,5.01,0.00,27.4,25.8,00.0,35.8,29.0,24.2,0000.0,0002.37,0001.28,0001.02
2023-05-13 04:49:00,,0834.5,5.01,0.00,27.4,25.7,00.0,35.8,29.0,24.2,0000.0,0002.45,0001.31,0001.05
2023-05-13 04:50:00,,0834.5,5.00,0.00,27.4,25.7,00.0,35.8,29.0,24.3,0000.0,0002.80,0001.34,0001.07
2023-05-13 04:51:00,,0834.4,4.99,0.00,27.4,25.7,00.0,35.8,29.0,24.3,0000.0,0002.88,0001.36,0001.07
2023-05-13 04:52:00,,0834.4,5.00,0.00,27.4,25.7,00.0,35.8,29.0,24.5,0000.0,0002.87,0001.35,0001.07
2023-05-13 04:53:00,,0834.4,4.99,0.00,27.4,25.7,00.0,35.8,29.0,24.5,0000.0,0002.82,0001.35,0001.06
2023-05-13 04:54:00,,0834.4,5.00,0.00,27.4,25.7,00.0,35.8,29.0,24.4,0000.0,0002.56,0001.32,0001.06
2023-05-13 04:55:00,,0834.4,5.01,0.00,27.4,25.7,00.0,35.8,29.0,24.5,0000.0,0002.57,0001.32,0001.08
2023-05-13 04:56:00,,0834.4,5.01,0.00,27.4,25.7,00.0,35.8,29.0,24.5,0000.0,0002.65,0001.36,0001.09
2023-05-13 04:57:00,,0834.3,5.01,0.00,27.4,25.7,00.0,35.8,29.0,24.6,0000.0,0002.53,0001.37,0001.11
2023-05-13 04:58:00,,0834.4,4.99,0.00,27.4,25.7,00.0,35.8,29.0,24.5,0000.0,0002.44,0001.38,0001.11
2023-05-13 04:59:00,,0834.3,4.99,0.00,27.4,25.7,00.0,35.8,29.0,24.6,0000.0,0002.44,0001.38,0001.11
